FW3057 Weather Reports


Display with metric or nautical units.
time (UTC)temp
F
wind
direction
speed
MPH
gust
MPH
rain 1hr
in
rain 24hr
in
rain mn
in
humidity
%
barometer
mb
20260904125309 76 213 7.0 15.0 0.00 0.00 0.00 76 1018.5
20260904124309 76 290 6.0 11.0 0.00 0.00 0.00 76 1018.4
20260904123309 76 274 7.0 11.0 0.00 0.00 0.00 76 1018.4
20260904122309 76 264 6.0 10.0 0.00 0.00 0.00 75 1018.4
20260904121309 76 269 7.0 11.0 0.00 0.00 0.00 75 1018.4
20260904120310 76 217 7.0 16.0 0.00 0.00 0.00 76 1018.4
20260904114309 76 274 8.0 16.0 0.00 0.00 0.00 75 1018.4
20260904112309 77 269 8.0 15.0 0.00 0.00 0.00 73 1018.4
20260904105309 76 285 10.0 13.0 0.00 0.00 0.00 76 1018.4
20260904104309 75 297 7.0 12.0 0.00 0.00 0.00 77 1018.3
20260904103310 74 271 8.0 16.0 0.00 0.00 0.00 78 1018.3
20260904102309 74 272 12.0 18.0 0.00 0.00 0.00 80 1018.4
20260904101309 73 264 11.0 18.0 0.00 0.00 0.00 81 1018.4
20260904100309 72 300 7.0 17.0 0.00 0.00 0.00 84 1018.6
20260904095309 71 250 8.0 14.0 0.00 0.00 0.00 86 1018.6
20260904094309 71 269 8.0 15.0 0.00 0.00 0.00 87 1018.6
20260904092309 70 245 5.0 15.0 0.00 0.00 0.00 89 1018.6
20260904091309 70 178 7.0 11.0 0.00 0.00 0.00 89 1018.6
20260904090310 69 261 6.0 14.0 0.00 0.00 0.00 89 1018.6
20260904085310 69 213 5.0 11.0 0.00 0.00 0.00 89 1018.5
20260904083310 69 231 6.0 10.0 0.00 0.00 0.00 90 1018.3
20260904082311 69 269 7.0 14.0 0.00 0.00 0.00 91 1018.4
20260904081311 68 276 5.0 10.0 0.00 0.00 0.00 91 1018.3
20260904080310 68 220 6.0 10.0 0.00 0.00 0.00 92 1018.2
20260904075310 68 269 5.0 12.0 0.00 0.00 0.00 92 1018.1
20260904074310 68 257 7.0 11.0 0.00 0.00 0.00 92 1018.4
20260904073310 67 233 8.0 15.0 0.00 0.00 0.00 91 1018.3
20260904072310 67 298 5.0 10.0 0.00 0.00 0.00 92 1018.0
20260904071310 67 221 6.0 10.0 0.00 0.00 0.00 92 1018.0
20260904065310 66 240 6.0 11.0 0.00 0.00 0.00 93 1017.8
20260904064310 66 216 6.0 12.0 0.00 0.00 0.00 93 1017.8
20260904062309 66 243 6.0 13.0 0.00 0.00 0.00 93 1017.7
20260904055309 66 227 6.0 10.0 0.00 0.00 0.00 93 1017.6
20260904054309 66 46 5.0 9.0 0.00 0.00 0.00 93 1017.6
20260904052309 66 219 5.0 10.0 0.00 0.00 0.00 93 1017.9
20260904051309 66 240 7.0 13.0 0.00 0.00 0.00 93 1018.0
20260904045309 67 302 3.0 8.0 0.00 0.00 0.00 93 1018.2
20260904044309 67 238 6.0 11.0 0.00 0.00 0.00 94 1018.3
20260904042312 67 216 3.0 9.0 0.00 0.00 0.00 94 1018.6
20260904041311 67 232 3.0 7.0 0.00 0.00 0.00 94 1018.5
20260904040311 67 264 4.0 8.0 0.00 0.00 0.00 94 1018.6
20260904035312 67 218 4.0 9.0 0.00 0.00 0.00 94 1018.6
20260904033312 67 229 5.0 11.0 0.00 0.00 0.00 93 1018.6
20260904032312 67 236 5.0 9.0 0.00 0.00 0.00 93 1018.6
20260904031312 67 227 5.0 10.0 0.00 0.00 0.00 93 1018.7
20260904030312 67 197 7.0 10.0 0.00 0.00 0.00 93 1018.8
20260904024311 67 202 4.0 8.0 0.00 0.00 0.00 93 1018.8
20260904023311 67 227 2.0 6.0 0.00 0.00 0.00 93 1018.9
20260904022311 67 245 3.0 6.0 0.00 0.00 0.00 93 1019.0
20260904020311 67 209 3.0 9.0 0.00 0.00 0.00 93 1019.1
20260904015311 67 269 4.0 9.0 0.00 0.00 0.00 93 1019.1
20260904012311 67 255 5.0 13.0 0.00 0.00 0.00 93 1019.3
20260904011311 67 220 7.0 12.0 0.00 0.00 0.00 93 1019.3
20260904010311 67 237 7.0 12.0 0.00 0.00 0.00 93 1019.5
20260904005311 67 207 7.0 21.0 0.00 0.00 0.00 93 1019.6
20260904003311 67 214 8.0 12.0 0.00 0.00 0.00 92 1019.7
20260904002311 67 236 7.0 12.0 0.00 0.00 0.00 93 1019.9
20260904000311 67 216 5.0 11.0 0.00 0.00 0.00 93 1019.8
20260903235311 67 222 5.0 10.0 0.00 0.00 0.00 93 1020.0
20260903234311 67 221 6.0 10.0 0.00 0.00 0.00 92 1020.0
20260903233311 67 235 7.0 13.0 0.00 0.00 0.00 92 1020.2
20260903232311 67 223 8.0 12.0 0.00 0.00 0.00 92 1020.1
20260903224311 67 230 5.0 10.0 0.00 0.00 0.00 92 1020.3
20260903223311 67 223 4.0 10.0 0.00 0.00 0.00 92 1020.4
20260903222311 68 223 7.0 11.0 0.00 0.00 0.00 91 1020.4
20260903220311 68 236 5.0 9.0 0.00 0.00 0.00 91 1020.6
20260903215311 68 241 5.0 9.0 0.00 0.00 0.00 91 1020.6
20260903214311 68 199 4.0 8.0 0.00 0.00 0.00 90 1020.8
20260903212311 69 252 5.0 9.0 0.00 0.00 0.00 90 1020.9
20260903211311 69 209 5.0 9.0 0.00 0.00 0.00 89 1020.9
20260903210311 69 212 4.0 8.0 0.00 0.00 0.00 89 1020.9
20260903205311 69 204 5.0 8.0 0.00 0.00 0.00 89 1021.0
20260903204311 69 243 5.0 8.0 0.00 0.00 0.00 89 1021.2
20260903203311 69 250 3.0 8.0 0.00 0.00 0.00 88 1021.3
20260903202311 70 194 3.0 6.0 0.00 0.00 0.00 88 1021.5
20260903201311 70 211 5.0 9.0 0.00 0.00 0.00 88 1021.4
20260903200311 70 234 5.0 9.0 0.00 0.00 0.00 87 1021.4
20260903195310 70 197 5.0 9.0 0.00 0.00 0.00 87 1021.3
20260903194310 70 321 6.0 12.0 0.00 0.00 0.00 87 1021.3
20260903193310 71 225 5.0 10.0 0.00 0.00 0.00 86 1021.3
20260903192311 71 214 4.0 9.0 0.00 0.00 0.00 86 1021.2
20260903191310 72 219 4.0 8.0 0.00 0.00 0.00 85 1021.1
20260903190310 72 211 4.0 7.0 0.00 0.00 0.00 84 1021.2
20260903185310 73 238 5.0 8.0 0.00 0.00 0.00 84 1021.3
20260903184310 73 226 2.0 12.0 0.00 0.00 0.00 83 1021.2
20260903183310 73 278 6.0 12.0 0.00 0.00 0.00 83 1021.2
20260903182310 74 231 7.0 15.0 0.00 0.00 0.00 82 1021.3
20260903175310 74 218 5.0 11.0 0.00 0.00 0.00 81 1021.3
20260903174310 75 244 7.0 13.0 0.00 0.00 0.00 81 1021.3
20260903173310 75 222 5.0 13.0 0.00 0.00 0.00 81 1021.2
20260903172310 76 189 7.0 14.0 0.00 0.00 0.00 80 1021.3
20260903171310 76 235 8.0 17.0 0.00 0.00 0.00 80 1021.2
20260903170310 76 222 9.0 12.0 0.00 0.00 0.00 79 1021.2
20260903165310 77 279 8.0 14.0 0.00 0.00 0.00 78 1021.3
20260903164310 77 213 5.0 11.0 0.00 0.00 0.00 78 1021.3
20260903160310 78 226 5.0 10.0 0.00 0.00 0.00 76 1021.7
20260903155310 78 218 5.0 9.0 0.00 0.00 0.00 75 1021.6
20260903154310 78 221 3.0 11.0 0.00 0.00 0.00 74 1021.6
20260903152310 79 253 7.0 11.0 0.00 0.00 0.00 72 1021.8
20260903151310 79 272 5.0 8.0 0.00 0.00 0.00 73 1021.8
20260903150310 79 232 4.0 10.0 0.00 0.00 0.00 73 1021.8
20260903145310 79 220 4.0 10.0 0.00 0.00 0.00 73 1021.8
20260903144310 80 220 6.0 12.0 0.00 0.00 0.00 72 1021.7
20260903143310 80 243 6.0 11.0 0.00 0.00 0.00 72 1021.6
20260903141310 82 281 9.0 14.0 0.00 0.00 0.00 70 1021.8
20260903140310 82 230 8.0 15.0 0.00 0.00 0.00 70 1021.8
20260903135310 82 262 8.0 15.0 0.00 0.00 0.00 71 1021.8
20260903134310 81 234 5.0 10.0 0.00 0.00 0.00 72 1021.8
20260903133310 80 257 5.0 12.0 0.00 0.00 0.00 73 1021.9
20260903132310 80 228 8.0 13.0 0.00 0.00 0.00 73 1021.7
20260903131310 80 291 6.0 11.0 0.00 0.00 0.00 73 1021.8
20260903130310 80 228 5.0 11.0 0.00 0.00 0.00 74 1021.9